This is the latest recevied weather packets stored in our database for station/object LRSV. If no packets are shown the sender has not sent any weather packets the latest 1 day(s).
| Time | Temp. | Humidity | Pressure | Rain* | Wind** | Luminosity | Snow |
|---|---|---|---|---|---|---|---|
| 1836274143 | 17.22° C | 83% | 1027 hPa | - | 4.02 m/s, 330° | - | - |
| 1778024000 | 13.89° C | 55% | 1012 hPa | - | 3.58 m/s, 190° | - | - |
| 1778023100 | 13.89° C | 59% | 1012 hPa | - | 4.02 m/s, 190° | - | - |
| 1778022200 | 13.89° C | 59% | 1012 hPa | - | 4.02 m/s, 190° | - | - |
| 1778021300 | 12.78° C | 63% | 1012 hPa | - | 4.47 m/s, 180° | - | - |
| 1778020400 | 12.78° C | 63% | 1012 hPa | - | 4.47 m/s, 180° | - | - |
| 1778019497 | 13.89° C | 59% | 1012 hPa | - | 4.47 m/s, 180° | - | - |
| 1778018600 | 13.89° C | 59% | 1012 hPa | - | 4.47 m/s, 180° | - | - |
| 1778017701 | 13.89° C | 55% | 1012 hPa | - | 4.47 m/s, 180° | - | - |
| 1778016800 | 13.89° C | 55% | 1012 hPa | - | 4.47 m/s, 180° | - | - |
| 1778015900 | 15° C | 48% | 1012 hPa | - | 4.92 m/s, 170° | - | - |
| 1778015000 | 15° C | 48% | 1012 hPa | - | 4.92 m/s, 170° | - | - |
| 1778014102 | 15° C | 48% | 1012 hPa | - | 4.92 m/s, 180° | - | - |
| 1778013200 | 15° C | 48% | 1012 hPa | - | 4.92 m/s, 180° | - | - |
| 1778012331 | 15° C | 45% | 1012 hPa | - | 4.02 m/s, 170° | - | - |
| 1778011400 | 15° C | 45% | 1012 hPa | - | 4.02 m/s, 170° | - | - |
| 1778010500 | 17.22° C | 39% | 1012 hPa | - | 4.02 m/s, 160° | - | - |
| 1778009600 | 17.22° C | 39% | 1012 hPa | - | 4.02 m/s, 160° | - | - |
| 1778008700 | 17.22° C | 39% | 1012 hPa | - | 3.58 m/s, 170° | - | - |
| 1778007800 | 17.22° C | 39% | 1012 hPa | - | 3.58 m/s, 170° | - | - |
| 1778006901 | 17.22° C | 39% | 1012 hPa | - | 4.47 m/s, 150° | - | - |
| 1778006001 | 17.22° C | 39% | 1012 hPa | - | 4.47 m/s, 150° | - | - |
| 1778005101 | 17.78° C | 40% | 1012 hPa | - | 4.02 m/s, 150° | - | - |
| 1778004200 | 17.78° C | 40% | 1012 hPa | - | 4.02 m/s, 150° | - | - |
| 1778003297 | 18.89° C | 40% | 1012 hPa | - | 4.02 m/s, 150° | - | - |
* Rain since midnight (hover to see other rain measurements)
** Current wind speed in m/s (hover to see current wind gust speed)